www.pogodaiklimat.ru

Погода и климат >> Архив погоды >> Пакистан >> Ларкана


ПОГОДА в Ларкане

  • Прогноз погоды в Ларкане
  • Монитор погоды в Ларкане

АРХИВ ПОГОДЫ в Ларкане

Время (UTC), дата Ветер
(напр.,м/с)
 
Видим.   Явления Облачность Т
(С)
Тd
(С)
f
(%)
Тe
(С)
Тes
(С)
Комфортность P
(гПа)
Po
(гПа)
Тmin
(С)
Tmax
(С)
R
(мм)
R24
(мм)
S
(см)
15 15.07 ЮВ 3 4000 м 3/0
[Ac trans]
+39.0 +26.8 50 +55 +55 опасность
перегрева
991.3 985.7
18 15.07 ЮВ 3 4000 м ясно +36.0 +25.6 55 +51 +51 опасность
перегрева
992.9 987.2
21 15.07 ЮВ 2 4000 м ясно +33.0 +24.6 61 +46 +46 опасность
перегрева
992.6 986.9
00 16.07 ЮВ 2 4000 м ясно +30.0 +24.3 72 +42 +42 опасность
перегрева
992.3 986.1
03 16.07 ЮВ 2 4000 м 8/3 1200 м
[Sc Ac trans]
+31.5 +26.0 73 +47 +49 опасность
перегрева
993.7 987.6 +29.5
06 16.07 ЮВ 2 4000 м 8/3 1200 м
[Sc Ac trans]
+36.0 +27.2 61 +55 +62 опасность
перегрева
995.3 989.6
09 16.07 ЮВ 2 4000 м 5/0 1000 м
[Ac trans]
+39.5 +28.9 55 +61 +75 опасность
перегрева
993.2 987.6
12 16.07 ЮВ 3 4000 м 8/4 1200 м
[Sc Ac trans]
+40.5 +29.3 54 +64 +65 опасность
перегрева
992.4 986.4 +41.0
15 16.07 ЮВ 1 4000 м ясно +38.0 +27.2 54 +56 +56 опасность
перегрева
994.6 988.9
18 16.07 ЮВ 3 4000 м ясно +35.0 +26.8 63 +53 +53 опасность
перегрева
995.8 990.1
21 16.07 ЮВ 2 4000 м ясно +32.0 +25.8 70 +47 +47 опасность
перегрева
994.6 988.8
00 17.07 ЮВ 2 4000 м ясно +30.5 +25.6 75 +45 +45 опасность
перегрева
993.5 987.3
06 17.07 ЮВ 2 4000 м 8/3 1200 м
[Sc Ac trans]
+35.5 +27.4 63 +54 +62 опасность
перегрева
997.5 991.8
09 17.07 ЮВ 2 4000 м 8/3 1200 м
[Sc Ac trans]
+39.0 +27.0 51 +56 +64 опасность
перегрева
996.6 990.9
12 17.07 ЮВ 3 4000 м 3/0
[Ac trans]
+40.5 +28.5 51 +61 +64 опасность
перегрева
995.9 989.9 +41.0
15 17.07 ЮВ 1 4000 м ясно +38.0 +27.2 54 +56 +56 опасность
перегрева
996.8 991.1
18 17.07 ЮЗ 2 4000 м 5/3 1200 м
[Sc Ac trans]
+34.5 +26.3 62 +51 +51 опасность
перегрева
997.3 991.6
21 17.07 СВ 6 4000 м 6/4 1200 м
[Sc Ac trans]
+32.0 +25.8 70 +47 +47 опасность
перегрева
995.7 989.9
00 18.07 ЮВ 2 4000 м 5/3 1200 м
[Sc Ac trans]
+30.0 +25.1 75 +43 +43 опасность
перегрева
994.6 988.4
03 18.07 ЮВ 1 4000 м 8/4 1200 м
[Sc Ac trans]
+31.5 +26.0 73 +47 +49 опасность
перегрева
996.5 990.4 +29.5
06 18.07 ЮВ 2 4000 м 4/0
[Ac trans]
+34.5 +27.0 65 +52 +67 опасность
перегрева
999.3 993.5
09 18.07 ЮВ 2 4000 м 3/0
[Ac trans]
+38.5 +27.8 55 +58 +74 опасность
перегрева
997.9 992.2
12 18.07 ЮВ 2 4000 м ясно +39.5 +28.2 53 +60 +64 опасность
перегрева
995.8 989.8 +40.0
18 18.07 Ю 2 4000 м ясно +33.0 +24.6 61 +46 +46 опасность
перегрева
998.3 992.5
21 18.07 Ю 2 4000 м ясно +30.0 +24.3 72 +42 +42 опасность
перегрева
997.0 991.2
00 19.07 Ю 2 4000 м 5/5 1200 м
[St]
+29.0 +24.0 74 +40 +40 очень
душно
995.8 989.6
03 19.07 ЮВ 2 4000 м 4/0
[Ac trans]
+31.0 +24.6 69 +44 +48 опасность
перегрева
998.6 992.5 +28.5
06 19.07 Ю 2 4000 м ясно +34.5 +25.5 60 +49 +69 опасность
перегрева
1000.7 994.9
09 19.07 ЮВ 2 4000 м ясно +37.5 +26.6 54 +54 +73 опасность
перегрева
998.9 993.2
12 19.07 Ю 2 4000 м ясно +39.5 +27.4 51 +58 +63 опасность
перегрева
997.0 991.7 +40.0
15 19.07 Ю 3 4000 м ясно +38.0 +27.2 54 +56 +56 опасность
перегрева
998.8 993.1
18 19.07 Ю 3 4000 м ясно +35.0 +26.1 60 +51 +51 опасность
перегрева
999.8 994.1
21 19.07 Ю 2 4000 м 5/0
[Ac trans]
+32.0 +25.0 67 +46 +46 опасность
перегрева
998.9 993.1
00 20.07 ЮВ 2 4000 м ясно +29.0 +24.8 78 +41 +41 опасность
перегрева
997.9 991.7
03 20.07 ЮВ 2 4000 м 5/5
[Cb calv Ac cuf]
+33.0 +26.0 67 +49 +51 опасность
перегрева
1000.8 994.7 +28.5
06 20.07 Ю 1 4000 м 4/0
[]
+36.0 +27.9 63 +56 +74 опасность
перегрева
1003.4 997.6
09 20.07 Ю 1 4000 м ясно +40.5 +26.2 45 +56 +78 опасность
перегрева
1001.1 995.4
12 20.07 Ю 1 4000 м ясно +42.0 +25.6 40 +55 +61 опасность
перегрева
998.3 992.4 +42.5
15 20.07 Ю 1 4000 м 3/0
[Ac trans]
+39.0 +26.8 50 +55 +55 опасность
перегрева
999.2 993.5
18 20.07 Ю 1 4000 м 3/0
[Ac trans]
+36.0 +25.6 55 +51 +51 опасность
перегрева
1000.0 994.3
21 20.07 Ю 1 4000 м 3/0
[Ac trans]
+33.0 +24.6 61 +46 +46 опасность
перегрева
999.4 993.6
00 21.07 ЮВ 1 4000 м 3/0
[Ac trans]
+30.0 +24.3 72 +42 +42 опасность
перегрева
998.5 992.4
03 21.07 С 1 4000 м 3/0
[Ac trans]
+33.0 +26.1 67 +49 +54 опасность
перегрева
1000.6 994.5 +29.5
06 21.07 Ю 1 4000 м ясно +39.0 +26.8 50 +55 +78 опасность
перегрева
1001.2 995.5
09 21.07 Ю 1 4000 м 3/0
[Ac trans]
+42.0 +26.4 42 +57 +75 опасность
перегрева
1000.1 994.5
12 21.07 С 1 4000 м 3/0
[Ac trans]
+43.5 +26.7 39 +59 +63 опасность
перегрева
997.1 992.4 +44.0
15 21.07 В 1 4000 м 3/0
[Ac trans]
+40.0 +27.2 49 +58 +58 опасность
перегрева
998.1 992.5
18 21.07 Ю 1 4000 м ясно +37.0 +26.0 53 +52 +52 опасность
перегрева
998.8 993.1
21 21.07 Ю 1 4000 м ясно +34.0 +24.6 58 +47 +47 опасность
перегрева
997.9 992.1
00 22.07 штиль 0 4000 м ясно +32.0 +25.0 67 +46 +46 опасность
перегрева
997.4 991.3
03 22.07 В 1 4000 м ясно +35.0 +26.8 63 +53 +59 опасность
перегрева
999.6 993.6 +31.5
06 22.07 В 1 4000 м ясно +40.0 +26.4 47 +56 +78 опасность
перегрева
1000.2 994.5
09 22.07 В 1 4000 м 3/0
[Ac trans]
+42.0 +25.6 40 +55 +74 опасность
перегрева
995.7 990.1

 

Местоположение метеостанции Ларкана (Пакистан): широта 27.55 долгота 68.17 высота над уровнем моря 52 м.

В архиве по умолчанию представлена погода в Ларкане за последнюю неделю. Архивные данные за месяц целиком и за предыдущие месяцы, начиная с января 2011 года, Вы можете получить, выбрав интересующий диапазон дат из раскрывающегося списка и нажав кнопку "Ввод!".


*Определитесь, кто Вы:
робот инопланетянин человек

Внимание! Время в таблицах - всемирное. Для получения местного времени необходимо прибавить поправку, которая равна 5 ч.

Смотрите также архив погоды в соседних городах и на ближайших метеорологических станциях:

Погода в Мохенджо-Даро (Пакистан) (26 км)
Погода в Суккуре (Пакистан) (62 км)
Погода в Рохри (Пакистан) (73 км)
Погода в Пад Идан (Пакистан) (78 км)
Погода в Джейкобабаде (Пакистан) (88 км)
Погода в Навабшахе (Пакистан) (146 км)
Погода в Хуздаре (Пакистан) (155 км)
Погода в Даду (Пакистан) (168 км)
Погода в Сиби (Пакистан) (224 км)
Погода в Калате (Пакистан) (227 км)

Пояснения к столбцам:

Ветер - указаны скорость ветра в м/с - средняя за 10 мин, порывы в срок и между сроками (в фигурных скобках) и направление, откуда дует ветер: С - северный, СВ - северо-восточный, В - восточный, ЮВ - юго-восточный, Ю - южный, ЮЗ - юго-западный, З - западный, СЗ - северо-западный.
Видимость - горизонтальная дальность видимости в метрах или километрах. При видимости от 1 до 10 км при отсутствии осадков обычно наблюдается дымка, при ухудшении видимости до 1 км и менее - туман. В сухую погоду видимость может ухудшаться дымом, пылью или мглою.
Явления - указаны атмосферные явления, наблюдавшиеся в срок или в последний час перед сроком; фигурными скобками обозначены явления, наблюдавшиеся между сроками (за 1-3 часа до срока); квадратными скобками обозначены град или гололедные отложения с указанием их диаметра в мм.
Облачность - указаны через наклонную черту общая и нижняя облачность в баллах и высота нижней границы облаков в метрах; квадратными скобками обозначены формы облаков: Ci - перистые, Cs - перисто-слоистые, Cc - перисто-кучевые, Ac - высококучевые, As - высокослоистые, Sc - слоисто-кучевые, Ns - слоисто-дождевые, Cu - кучевые, Cb - кучево-дождевые. Подробнее классификацию облаков см. в Атласе облаков (PDF).
T - Температура воздуха - температура, измеренная на высоте 2 м над землей.
Td - Температура точки росы - температура, при понижении до которой содержащийся в воздухе водяной пар достигнет насыщения.
f - Относительная влажность воздуха - влажноcть воздуха, измеренная на высоте 2 м над землей.
Te - Эффективная температура - температура, которую ощущает одетый по сезону человек в тени. Характеристика душности погоды. При расчете учитывается влияние влажности воздуха и скорости ветра на теплоощущения человека.
Tes - Эффективная температура на солнце - температура, которую ощущает человек, с поправкой на солнечный нагрев. Характеристика знойности погоды. Зависит от высоты солнца над горизонтом, облачности и скорости ветра. Ночью, в пасмурную погоду, а также при ветре 12 м/с и более поправка равна нулю.
P - Атмосферное давление - приведенное к уровню моря атмосферное давление.
Po - Атмосферное давление - измеренное на уровне метеостанции атмосферное давление.
Tmin - Минимальная температура - минимум температуры воздуха на высоте 2 м над землей.
Tmax - Максимальная температура - максимум температуры воздуха на высоте 2 м над землей.
R - Количество осадков - Количество выпавших осадков за период времени, мм. При наведении курсора мыши на число - период времени, за который выпало указанное количество осадков.
R24 - Количество осадков - Количество выпавших осадков за 24 часа, мм.
S - Снежный покров - Высота снежного покрова, см. При наведении курсора мыши на число - состояние снежного покрова и степень покрытия местности в баллах.